When you browse on this site, cookies collect data to enhance your experience and personalize the content and advertising you see.
Visit our Privacy Policy to learn more. By continuing to use the site, you agree to this use of cookies and data.
  • In Spain
  • List of Countries
  • For 7 days
  • Water Temperature
  • Satellite Maps
  • Weather Map
  • Weather Widgets
  • user-avatar
    Login

    Hourly Weather Ali Bayramli

    Today, 18 January, Friday

    Time Temperature Precipitation Wind Pressure Humidity
    00:00 +3°C° 0.2 mm 3 mps 760 mmHg 71%
    01:00 +3°C° 0.2 mm 3 mps 761 mmHg 71%
    02:00 +3°C° 0.2 mm 3 mps 761 mmHg 72%
    03:00 +3°C° 0 mm 3 mps 762 mmHg 73%
    04:00 +3°C° 0.4 mm 3 mps 762 mmHg 71%
    05:00 +3°C° 0.4 mm 3 mps 763 mmHg 70%
    06:00 +3°C° 0.4 mm 3 mps 763 mmHg 68%
    07:00 +3°C° 0.3 mm 3 mps 763 mmHg 67%
    08:00 +3°C° 0.3 mm 3 mps 764 mmHg 67%
    09:00 +3°C° 0 mm 4 mps 764 mmHg 62%
    10:00 +3°C° 0.1 mm 3 mps 764 mmHg 62%
    11:00 +4°C° 0.1 mm 3 mps 764 mmHg 62%
    12:00 +5°C° 0.1 mm 2 mps 764 mmHg 62%
    13:00 +5°C° 0 mm 2 mps 764 mmHg 62%
    14:00 +5°C° 0 mm 2 mps 764 mmHg 62%
    15:00 +5°C° 0 mm 2 mps 764 mmHg 62%
    16:00 +5°C° 0 mm 2 mps 764 mmHg 65%
    17:00 +5°C° 0 mm 2 mps 765 mmHg 68%
    18:00 +5°C° 0 mm 1 mps 765 mmHg 70%
    19:00 +5°C° 0 mm 1 mps 765 mmHg 71%
    20:00 +5°C° 0 mm 1 mps 765 mmHg 72%
    21:00 +5°C° 0 mm 1 mps 765 mmHg 73%
    22:00 +5°C° 0 mm 1 mps 764 mmHg 75%
    23:00 +4°C° 0 mm 1 mps 764 mmHg 77%

    Tomorrow, 19 January, Saturday

    Time Temperature Precipitation Wind Pressure Humidity
    00:00 +4°C° 0 mm 1 mps 764 mmHg 80%
    01:00 +4°C° 0 mm 1 mps 764 mmHg 81%
    02:00 +4°C° 0 mm 1 mps 763 mmHg 83%
    03:00 +4°C° 0 mm 1 mps 763 mmHg 85%
    04:00 +4°C° 0 mm 1 mps 763 mmHg 84%
    05:00 +4°C° 0 mm 1 mps 763 mmHg 84%
    06:00 +4°C° 0 mm 1 mps 763 mmHg 83%
    07:00 +4°C° 0 mm 1 mps 763 mmHg 79%
    08:00 +5°C° 0 mm 1 mps 764 mmHg 75%
    09:00 +6°C° 0 mm 1 mps 764 mmHg 71%
    10:00 +6°C° 0 mm 1 mps 763 mmHg 68%
    11:00 +6°C° 0 mm 0 mps 763 mmHg 64%
    12:00 +7°C° 0 mm 0 mps 763 mmHg 61%
    13:00 +7°C° 0 mm 0 mps 763 mmHg 60%
    14:00 +7°C° 0 mm 0 mps 763 mmHg 58%
    15:00 +8°C° 0 mm 0 mps 762 mmHg 57%
    16:00 +8°C° 0 mm 1 mps 763 mmHg 61%
    17:00 +7°C° 0 mm 1 mps 763 mmHg 65%
    18:00 +7°C° 0 mm 1 mps 763 mmHg 69%
    19:00 +6°C° 0 mm 1 mps 763 mmHg 72%
    20:00 +6°C° 0 mm 1 mps 763 mmHg 74%
    21:00 +5°C° 0 mm 1 mps 763 mmHg 76%
    22:00 +5°C° 0 mm 1 mps 764 mmHg 79%
    23:00 +5°C° 0 mm 1 mps 764 mmHg 82%

    Day after tomorrow, 20 January, Sunday

    Time Temperature Precipitation Wind Pressure Humidity
    00:00 +3°C° 0 mm 0 mps 764 mmHg 85%
    01:00 +3°C° 0 mm 0 mps 764 mmHg 86%
    02:00 +3°C° 0 mm 0 mps 764 mmHg 86%
    03:00 +3°C° 0 mm 0 mps 764 mmHg 87%
    04:00 +3°C° 0 mm 1 mps 764 mmHg 87%
    05:00 +3°C° 0 mm 1 mps 765 mmHg 87%
    06:00 +3°C° 0 mm 1 mps 765 mmHg 86%
    07:00 +4°C° 0 mm 1 mps 765 mmHg 82%
    08:00 +5°C° 0 mm 1 mps 765 mmHg 77%
    09:00 +6°C° 0 mm 1 mps 766 mmHg 73%
    10:00 +6°C° 0 mm 2 mps 766 mmHg 68%
    11:00 +7°C° 0 mm 2 mps 766 mmHg 62%
    12:00 +8°C° 0 mm 2 mps 765 mmHg 57%
    13:00 +9°C° 0 mm 2 mps 765 mmHg 55%
    14:00 +9°C° 0 mm 2 mps 765 mmHg 52%
    15:00 +10°C° 0 mm 2 mps 765 mmHg 49%
    16:00 +9°C° 0 mm 1 mps 765 mmHg 55%
    17:00 +8°C° 0 mm 1 mps 766 mmHg 61%
    18:00 +6°C° 0 mm 0 mps 766 mmHg 66%
    19:00 +5°C° 0 mm 0 mps 766 mmHg 67%
    20:00 +5°C° 0 mm 0 mps 766 mmHg 67%
    21:00 +5°C° 0 mm 0 mps 766 mmHg 68%
    22:00 +4°C° 0 mm 0 mps 766 mmHg 69%
    23:00 +4°C° 0 mm 0 mps 766 mmHg 69%

    21 January, Monday

    Time Temperature Precipitation Wind Pressure Humidity
    00:00 +4°C° 0 mm 0 mps 766 mmHg 70%
    01:00 +3°C° 0 mm 0 mps 766 mmHg 72%
    02:00 +3°C° 0 mm 0 mps 766 mmHg 73%
    03:00 +3°C° 0 mm 0 mps 766 mmHg 75%
    04:00 +3°C° 0 mm 0 mps 766 mmHg 76%
    05:00 +2°C° 0 mm 0 mps 766 mmHg 78%
    06:00 +2°C° 0 mm 0 mps 766 mmHg 80%
    07:00 +5°C° 0 mm 1 mps 766 mmHg 72%
    08:00 +6°C° 0 mm 1 mps 766 mmHg 64%
    09:00 +7°C° 0 mm 1 mps 766 mmHg 56%
    10:00 +8°C° 0 mm 1 mps 766 mmHg 54%
    11:00 +9°C° 0 mm 1 mps 765 mmHg 51%
    12:00 +10°C° 0 mm 1 mps 764 mmHg 49%
    13:00 +10°C° 0 mm 1 mps 764 mmHg 48%
    14:00 +11°C° 0 mm 1 mps 763 mmHg 47%
    15:00 +11°C° 0 mm 1 mps 763 mmHg 46%
    16:00 +10°C° 0 mm 1 mps 763 mmHg 51%
    17:00 +9°C° 0 mm 1 mps 763 mmHg 57%
    18:00 +8°C° 0 mm 1 mps 763 mmHg 62%
    19:00 +7°C° 0 mm 1 mps 762 mmHg 62%
    20:00 +7°C° 0 mm 1 mps 762 mmHg 63%
    21:00 +7°C° 0 mm 1 mps 762 mmHg 64%
    22:00 +6°C° 0 mm 1 mps 762 mmHg 63%
    23:00 +6°C° 0 mm 1 mps 761 mmHg 62%

    22 January, Tuesday

    Time Temperature Precipitation Wind Pressure Humidity
    00:00 +5°C° 0 mm 2 mps 761 mmHg 61%
    01:00 +4°C° 0 mm 2 mps 761 mmHg 58%
    02:00 +4°C° 0 mm 2 mps 760 mmHg 55%
    03:00 +4°C° 0 mm 2 mps 760 mmHg 53%
    04:00 +2°C° 0 mm 3 mps 760 mmHg 52%
    05:00 +2°C° 0 mm 3 mps 760 mmHg 52%
    06:00 +2°C° 0 mm 3 mps 760 mmHg 51%
    07:00 +1°C° 0 mm 4 mps 760 mmHg 48%
    08:00 +2°C° 0 mm 5 mps 760 mmHg 46%
    09:00 +3°C° 0 mm 6 mps 760 mmHg 43%
    10:00 +5°C° 0 mm 7 mps 759 mmHg 38%
    11:00 +6°C° 0 mm 7 mps 759 mmHg 34%
    12:00 +9°C° 0 mm 8 mps 759 mmHg 29%
    13:00 +9°C° 0 mm 7 mps 759 mmHg 28%
    14:00 +10°C° 0 mm 7 mps 758 mmHg 27%
    15:00 +10°C° 0 mm 6 mps 758 mmHg 26%
    16:00 +9°C° 0 mm 5 mps 759 mmHg 29%
    17:00 +8°C° 0 mm 4 mps 759 mmHg 33%
    18:00 +8°C° 0 mm 3 mps 760 mmHg 36%
    19:00 +7°C° 0 mm 2 mps 760 mmHg 39%
    20:00 +7°C° 0 mm 1 mps 760 mmHg 41%
    21:00 +6°C° 0 mm 1 mps 761 mmHg 44%
    22:00 +6°C° 0 mm 1 mps 761 mmHg 46%
    23:00 +6°C° 0 mm 1 mps 761 mmHg 48%

    23 January, Wednesday

    Time Temperature Precipitation Wind Pressure Humidity
    00:00 +5°C° 0 mm 1 mps 761 mmHg 50%
    01:00 +5°C° 0 mm 1 mps 761 mmHg 52%
    02:00 +5°C° 0 mm 1 mps 762 mmHg 53%
    03:00 +4°C° 0 mm 2 mps 762 mmHg 55%
    04:00 +4°C° 0 mm 2 mps 762 mmHg 59%
    05:00 +4°C° 0 mm 2 mps 762 mmHg 63%
    06:00 +4°C° 0 mm 2 mps 762 mmHg 68%
    07:00 +4°C° 0 mm 3 mps 763 mmHg 66%
    08:00 +5°C° 0 mm 3 mps 763 mmHg 65%
    09:00 +7°C° 0 mm 3 mps 764 mmHg 64%
    10:00 +8°C° 0 mm 3 mps 763 mmHg 62%
    11:00 +9°C° 0 mm 3 mps 763 mmHg 60%
    12:00 +9°C° 0 mm 3 mps 763 mmHg 57%
    13:00 +9°C° 0 mm 3 mps 763 mmHg 59%
    14:00 +9°C° 0 mm 3 mps 762 mmHg 61%
    15:00 +9°C° 0 mm 3 mps 762 mmHg 63%
    16:00 +8°C° 0 mm 2 mps 762 mmHg 68%
    17:00 +8°C° 0 mm 2 mps 762 mmHg 74%
    18:00 +7°C° 0 mm 2 mps 763 mmHg 79%
    19:00 +8°C° 0 mm 1 mps 763 mmHg 80%
    20:00 +8°C° 0 mm 1 mps 763 mmHg 82%
    21:00 +8°C° 0 mm 1 mps 762 mmHg 83%
    22:00 +7°C° 0 mm 1 mps 762 mmHg 84%
    23:00 +7°C° 0 mm 1 mps 762 mmHg 85%
    Show more